Location: *
(49.0044°N, 9.5056°E)
Time: 11:06:47
(UTC+00:00)

Meteor 1-24 Rocket - Pass Details

Date: 22 September 2019
Orbit: 791 x 926 km, 81.2° (Epoch: 22 October)

Event Time Altitude Azimuth Distance (km) Brightness Sun altitude
Rises 18:50:47 0° 350° (N) 3,467 7.3 -15.3°
Reaches altitude 10° 18:53:14 10° 354° (N) 2,545 6.5 -15.7°
Maximum altitude 18:58:59 60° 75° (ENE) 1,029 3.9 -16.6°
Enters shadow 19:03:17 19° 150° (SSE) 2,034 5.2 -17.3°
